Погода Идринское

Погода Идринское : погода сейчас, прогноз погоды и архив. Всё, что Вы хотите узнать о погоде Идринское!

Хотите узнать прогноз погоды Идринское? Тогда Вам сюда: Погода Идринское

Поиск расширенной информации на нашем сайте:

Другие новости

Новости СМИ2

Главная страница сайта

Новости сайта

03.07.2017

Напоминаем, что на нашем специализированном сайте Метеоцентр.Азия вы можете получить высокодетализированные автоматические прогнозы погоды по пунктам России, СНГ и мира в авиационном формате (включающие направление и скорость ветра, видимость, явления погоды, количество и форму облачности, нижнюю и верхнюю границу облачности).


Погода Идринское - сегодня

Время (UTC), дата Ветер
(°,м/с) 
Видим.   Явления Облачность Т
(°С)
Тd
(°С)
f(%) Тe
(°С)
Pmin
(гПа)
dP
(гПа)
Po
(мм)
O2
(г/м3)
Тmin Tmax R s Состояние
почвы
00 16.04.18 110 (В) 20000 м    ясно 
-3.5 -5.6 85 -5  1014.4  0.3  734  300  -5.5         
03 16.04.18 140 (ЮВ) 20000 м    3/0 верхняя 
[Ci fib]
+5 -3.6 54 +4  1011.8  -1.4  733  290           
06 16.04.18 170 (Ю) 20000 м    3/0 верхняя 
[Ci fib]
+8.8 -4.5 39 +8  1009.1  -2.2  731  286           
09 16.04.18 160 (Ю) 20000 м    10/0 верхняя 
[Cs]
+11.8 -9.1 22 +12  1005.8  -2.9  729  282           
12 16.04.18 120 (ЮВ) 20000 м    10/10 1000 м 
[Sc]
+9.1 -2.1 45 +10  1004.1  -1.8  728  284    +12       
15 16.04.18 110 (В) 20000 м    4/4 1000 м 
[Sc]
+3.7 -2.3 65 +3  1004.6  -0.3  728  289           
18 16.04.18 120 (ЮВ) 20000 м    ясно 
-0.3 -3.1 81 1006.2  1.1  729  294           
00 17.04.18 020 (С) 20000 м    8/4 1000 м верхняя 
[Sc|Ci fib]
+2.9 -1.6 72 +4  1009.6  1.1  731  292  -0.9         
03 17.04.18 230 (ЮЗ) 20000 м    9/9 1000 м 
[Sc]
+8.1 -0.1 56 +7  1008.4  -0.5  731  286           
12 17.04.18 110 (В) 20000 м  {ливн. осадки}  9/9 1000 м кучево-дожд. 
[Cb cap]
+2.9 +2.3 96 +4  1009.7  -0.4  731  291    +11.5     
15 17.04.18 290 (З) 20000 м    9/9 1000 м кучево-дожд. 
[Cb cap]
+2 +0.1 87 +1  1012.3  2.4  733  293           
18 17.04.18 290 (З) 20000 м    9/9 1000 м 
[Sc]
+0.6 -4.4 69 -1  1015.2  2.6  735  296           
21 17.04.18 тихо ()   20000 м    ясно 
-1.5 -3.3 88 -2  1017.1  1.6  736  299           
00 18.04.18 250 (З) 20000 м    9/9 1000 м 
[Sc]
-0.8 -6.3 66 -2  1018  737  298  -1.8         
03 18.04.18 290 (З) 20000 м    4/4 1000 м 
[Sc]
+1.4 -8 50 1018.6  0.8  738  296           
06 18.04.18 300 (СЗ) 5{10}  20000 м    6/6 1000 м 
[Cu med, cong]
+2.6 -9.6 40 1019.1  0.7  738  296           
09 18.04.18 300 (СЗ) 4{10}  20000 м    8/8 1000 м 
[Sc]
+3.3 -11 34 +1  1019.2  0.1  738  295           
12 18.04.18 360 (С) 20000 м    9/6 1000 м верхняя 
[Sc|Ci fib]
+1.6 -11.9 36 +1  1019.2  -0.2  738  297    +4.2       
15 18.04.18 020 (С) 20000 м    9/4 1000 м верхняя 
[Sc|Ci fib]
-0.8 -10.7 47 -2  1020.7  1.1  739  300           
18 18.04.18 тихо ()   20000 м    8/8 1000 м 
[Sc]
-3.4 -6.6 78 -3  1021.8  0.8  740  302           
21 18.04.18 130 (ЮВ) 20000 м    4/4 1000 м 
[Sc]
-5.7 -7.7 86 -5  1022.7  0.5  740  305           
00 19.04.18 100 (В) 20000 м    8/3 1000 м верхняя 
[Sc|Ci fib]
-4.9 -7.2 84 -4  1023.6  741  305  -5.8         
03 19.04.18 110 (В) 20000 м    8/0 верхняя 
[Ci fib]
+1.8 -9.5 43 +3  1022.7  741  297           
06 19.04.18 210 (ЮЗ) 20000 м    9/6 1000 м кучево-дожд., верхняя 
[Cb cap|Ci fib]
+2.9 -10.3 37 +2  1021.3  -1.1  740  296           
09 19.04.18 170 (Ю) 20000 м    9/8 1000 м верхняя 
[Cu med, cong|Ci fib]
+4.5 -9.5 35 +5  1019.9  -1.2  739  294           
Время (UTC), дата Ветер
(°,м/с) 
Видим.   Явления Облачность Т
(°С)
Тd
(°С)
f(%) Тe
(°С)
Pmin
(гПа)
dP
(гПа)
Po
(мм)
O2
(г/м3)
Тmin Tmax R s Состояние
почвы

Для получения пояснительной информации подведите курсор к названию столбца.

ПОГОДА Идринское - архив

Всё, что Вы хотите узнать о погоде Идринское - удобно и подробно!

Выберите нужную дату (начиная с 1 января 2015* года) и нажмите кнопку "Найти".
Будут отображены архивные сводки погоды по пункту Идринское, начиная с указанной даты.


Отображать данные в формате CSV (для использования в таблицах Excel)


Внимание! Наш архив погоды предназначен исключительно для личного некоммерческого использования в познавательных целях. Если Вам необходимы официальные справки о состоянии погоды (для производственных, юридических, коммерческих и т.п. целей), обращайтесь в органы Росгидромета.

*Примечание: данная дата относится к архиву по метеостанциям СССР (Россия, СНГ, Балтия).
Архив по метеостанциям Зарубежной Европы и Азии (кроме Китая) хранится 10 дней, по другим регионам земного шара (Китай, Африка, Америка, Австралия, Океания) - 1 день.

Идринское - район местоположения метеостанции


Название, широта, долгота, высота метеостанции:
Идринское 54.4°ш. 92.1°д. 282 м над ур. моря [Российская Федерация]

Дополнительная информация

В oтличие oт бoльшинства пoгoдных сайтoв мы публикуем пoдрoбную метеoинфoрмацию в детальнoм прoфессиoнальнoм фoрмате.

Характеристики температуры и влажнoсти вoздуха измеряются на высoте 2 м в тени вдали oт зданий и деревьев.
Скoрoсть ветра измеряется на высoте 10 м (на урoвне рoста челoвека скoрoсть ветра ниже в 1.5-2 раза). Если метеoстанция нахoдится в гoрoде или в лесу, тo скoрoсть ветра занижена на 2-4 м/с пo сравнению с oткрытым местoм. Скoрoсть ветра над акватoриями крупных рек и oзёр, а также на вершинах хoлмoв на 2-5 м/с выше, чем в oбычных услoвиях.
Атмoсфернoе давление в разных тoчках местнoсти мoжет значительнo oтличаться oт давления на метеoстанции, в зависимoсти oт услoвий рельефа (при пoдъёме на 10 м давление пoнижается примернo на 1 мм рт.ст.).